www.pogodaiklimat.ru

Погода и климат >> Архив погоды >> Гренландия >> Qaarsut Mittarfia


ПОГОДА в Qaarsut Mittarfia

  • Прогноз погоды в Qaarsut Mittarfia
  • Монитор погоды в Qaarsut Mittarfia
  • Климат города

АРХИВ ПОГОДЫ в Qaarsut Mittarfia

Время (UTC), дата Ветер
(напр.,м/с)
 
Видим.   Явления Облачность Т
(С)
Тd
(С)
f
(%)
Тe
(С)
Тes
(С)
Комфортность P
(гПа)
Po
(гПа)
Тmin
(С)
Tmax
(С)
R
(мм)
R24
(мм)
S
(см)
02 9.07 СВ 3 4600 м слаб. ливневой дождь 10/10 60 м
[]
+2.2 +2.0 99 -2 -2 997.0 986.1
01 9.07 С 2 500 м слаб. дождь {морось} 10/10 90 м
[]
+2.6 +2.4 99 -1 -1 996.8 985.9
03 9.07 В 3 10 км {ливн. осадки, дождь} 10/10 90 м
[]
+2.2 +1.9 98 -2 -2 997.3 986.4
04 9.07 В 3 7000 м дымка {ливн. осадки, дождь} 10/10 90 м
[]
+2.2 +1.9 98 -2 -2 997.5 986.6
05 9.07 В 3 10 км {ливн. осадки, дождь} 10/10 120 м
[]
+2.2 +1.7 96 -2 -2 997.8 986.9
06 9.07 ЮВ 3 11 км 10/10 150 м
[]
+2.2 +1.2 93 -2 -2 998.1 987.2 +1.9 +4.6
08 9.07 ЮВ 2 5000 м дымка 10/10 180 м
[]
+2.6 +1.8 94 -0 -0 999.0 988.2
07 9.07 ЮВ 2 14 км 10/10 180 м
[]
+2.4 +1.2 92 -1 -1 998.6 987.7
09 9.07 В 2 10 км 10/10 180 м
[]
+2.8 +1.4 90 -0 -0 999.6 988.7
10 9.07 Ю 1 35 км 10/10 240 м
[]
+3.3 +1.6 89 +2 +2 1000.2 989.4
11 9.07 СВ 2 25 км 10/10 210 м
[]
+3.5 +1.8 89 +1 +1 1000.8 989.9
12 9.07 СЗ 3 10 км 10/10 180 м
[]
+3.5 +1.8 89 -0 -0 1001.5 990.7
13 9.07 С 3 30 км 10/10 210 м
[]
+3.7 +1.6 86 0 0 1002.0 991.2
15 9.07 СВ 3 35 км 10/10 240 м
[]
+4.2 +1.9 85 +1 +1 1003.0 992.1
16 9.07 С 3 30 км 10/10 240 м
[]
+4.3 +1.8 84 +1 +1 1003.4 992.5
17 9.07 СЗ 3 30 км 10/10 240 м
[]
+4.2 +1.9 85 0 0 1003.7 992.8
18 9.07 СВ 2 23 км 10/10 240 м
[]
+4.3 +1.5 82 +2 +2 1003.9 993.1 +2.1 +5.3
19 9.07 С 2 35 км 10/10 240 м
[]
+4.3 +1.8 84 +2 +2 1004.7 993.9
20 9.07 СЗ 2 30 км 9/9 270 м
[]
+4.7 +2.0 83 +2 +3 1005.0 994.2
21 9.07 С 2 35 км 1/0 2000 м
[]
+5.3 +2.0 79 +3 +7 1005.4 994.6
00 10.07 СЗ 4 30 км 3/3 210 м
[]
+4.3 +2.0 85 0 +1 1006.7 995.8
01 10.07 СЗ 2 35 км 1/1 210 м
[]
+4.4 +2.1 85 +2 +3 1007.0 996.1
02 10.07 СВ 1 35 км 1/1 270 м
[]
+4.2 +1.9 85 +4 +4 1007.1 996.2
03 10.07 ЮВ 2 30 км 1/1 270 м
[]
+3.6 +2.1 90 +1 +1 1006.9 996.0
04 10.07 ЮВ 1 35 км 1/1 180 м
[]
+3.5 +2.3 92 +2 +2 1006.9 995.9
05 10.07 ЮВ 2 30 км 4/4 120 м
[]
+3.8 +2.4 91 +1 +1 1006.6 995.7
06 10.07 Ю 2 35 км ясно +4.8 +2.7 86 +3 +3 1006.4 995.5 +3.0 +5.7
07 10.07 В 7 35 км ясно +7.3 +0.5 62 +3 +3 1006.1 995.3
08 10.07 В 5 35 км ясно +8.3 -0.9 52 +5 +6 1006.3 995.5
09 10.07 ЮВ 9 35 км 1/0
[]
+8.9 -0.9 50 +5 +5 1006.1 995.4
10 10.07 В 7 35 км ясно +8.7 -1.1 50 +5 +6 1006.3 995.5
11 10.07 С 3 35 км ясно +7.9 -1.0 53 +6 +10 1006.7 995.9
12 10.07 В 5 30 км 10/0
[]
+9.4 -1.9 45 +7 +8 1006.1 995.4
13 10.07 В 7 35 км 10/0
[]
+8.9 -1.5 48 +5 +6 1006.1 995.4
14 10.07 В 7 35 км 9/0
[]
+8.6 -2.4 46 +5 +6 1005.9 995.1
15 10.07 СВ 4 27 км 10/0
[]
+9.1 -3.2 42 +7 +10 1006.0 995.3
16 10.07 СЗ 3 35 км 10/0
[]
+8.3 +0.4 57 +6 +10 1005.8 995.1
17 10.07 СЗ 5 26 км 9/0
[]
+7.5 +2.3 70 +4 +6 1005.8 995.0
18 10.07 СЗ 7 35 км 10/0
[]
+7.7 +3.3 74 +3 +5 1005.9 995.1 +4.8 +10.7
19 10.07 СЗ 6 35 км 10/0
[]
+7.7 +3.6 75 +4 +5 1005.9 995.1
20 10.07 СЗ 4 35 км 8/0
[]
+6.6 +2.9 77 +3 +5 1006.1 995.2
21 10.07 С 1 35 км 10/0
[]
+6.8 +3.1 77 +6 +8 1006.0 995.2
22 10.07 СЗ 2 35 км 10/0
[]
+7.7 +0.9 62 +6 +7 1005.9 995.1
23 10.07 СЗ 3 35 км 9/0
[]
+7.9 +0.1 58 +6 +6 1005.7 994.9
00 11.07 СЗ 4 35 км 10/0
[]
+7.2 +0.4 62 +4 +4 1006.0 995.2
01 11.07 СЗ 2 35 км 10/0
[]
+7.2 +0.9 64 +5 +5 1006.0 995.2
02 11.07 СЗ 3 35 км 9/0
[]
+6.2 +1.3 71 +4 +4 1006.4 995.6
03 11.07 С 1 35 км 10/0
[]
+6.4 +0.6 66 +7 +7 1006.3 995.5
04 11.07 ЮВ 2 35 км 10/0
[]
+5.9 +0.5 68 +4 +4 1006.5 995.6
05 11.07 ЮВ 2 35 км 10/0
[]
+6.4 +0.8 67 +4 +4 1006.5 995.7
06 11.07 В 2 35 км 10/0
[]
+6.3 +1.4 71 +5 +5 1006.9 996.1 +5.7 +8.3
07 11.07 ЮВ 2 35 км 10/0
[]
+6.3 +0.9 68 +5 +5 1007.2 996.4
08 11.07 СЗ 2 35 км 10/0
[]
+6.8 +1.8 70 +5 +5 1008.0 997.2
09 11.07 СЗ 2 35 км 10/0
[]
+6.3 +2.0 74 +4 +5 1008.4 997.6
10 11.07 ЮВ 3 35 км 10/0
[]
+7.1 +1.5 68 +5 +6 1008.5 997.7
11 11.07 СВ 2 35 км 10/0
[]
+6.7 -0.1 62 +5 +7 1009.2 998.3
12 11.07 С 2 35 км 10/0
[]
+7.2 -0.6 58 +6 +9 1009.5 998.7
13 11.07 С 2 35 км 10/0
[]
+6.9 -1.7 54 +5 +9 1009.8 999.0
14 11.07 С 2 35 км 10/0
[]
+7.1 -1.2 56 +6 +11 1010.1 999.2
15 11.07 СЗ 3 35 км 10/0 2000 м
[]
+7.1 -0.7 58 +5 +8 1010.5 999.6
16 11.07 СЗ 2 35 км 10/0
[]
+7.9 +0.3 59 +7 +12 1010.7 999.9
17 11.07 СЗ 1 35 км 9/0 2000 м
[]
+7.7 -0.1 58 +8 +15 1010.9 1000.1
18 11.07 СЗ 3 35 км 10/0 2000 м
[]
+7.7 -0.9 54 +6 +9 1011.5 1000.7 +6.1 +8.5
19 11.07 СЗ 6 35 км в посл. час дождь {ливн. осадки} 10/10 1500 м
[]
+7.1 +0.5 63 +3 +3 1011.9 1001.1
21 11.07 З 3 35 км {ливн. осадки, дождь} 10/10 1500 м
[]
+6.9 +0.8 65 +4 +4 1012.2 1001.3
22 11.07 СЗ 4 35 км слаб. ливневой дождь 10/0 2000 м
[]
+7.1 +1.7 68 +4 +5 1011.8 1001.0
23 11.07 СЗ 5 35 км {ливн. осадки, дождь} 9/0 2000 м
[]
+6.9 -0.1 61 +3 +4 1011.7 1000.9
00 12.07 СЗ 5 35 км 10/0 2000 м
[]
+6.7 +2.8 76 +3 +3 1011.6 1000.7
02 12.07 З 2 35 км в посл. час дождь {ливн. осадки} 10/0 2000 м
[]
+6.1 +4.0 86 +4 +4 1011.0 1000.1
01 12.07 СЗ 4 22 км слаб. дождь {ливн. осадки} 10/10 1320 м
[]
+6.0 +4.0 87 +2 +2 1011.6 1000.7
03 12.07 СЗ 3 35 км {ливн. осадки} 10/0 2000 м
[]
+5.5 +4.3 92 +2 +2 1010.7 999.8
04 12.07 З 3 35 км {ливн. осадки} 10/0 2000 м
[]
+5.7 +3.9 88 +3 +3 1010.3 999.4
05 12.07 З 3 35 км {ливн. осадки} 10/10 1500 м
[]
+5.6 +3.5 86 +2 +2 1009.8 998.9
06 12.07 СЗ 2 35 км 10/10 1500 м
[]
+6.6 +3.5 81 +4 +4 1009.4 998.5 +5.2 +8.7
08 12.07 З 2 35 км 10/10 1500 м
[]
+7.4 +3.9 78 +5 +5 1008.9 998.1
07 12.07 СЗ 3 35 км 10/0 2000 м
[]
+6.3 +4.0 85 +3 +4 1009.2 998.4
09 12.07 З 2 35 км 10/10 1500 м
[]
+6.2 +4.8 91 +4 +4 1008.9 998.0
10 12.07 СЗ 2 30 км 10/10 1500 м
[]
+6.2 +4.6 89 +4 +4 1008.6 997.7
11 12.07 СЗ 4 35 км 9/9 1500 м
[]
+7.8 +4.3 79 +5 +5 1008.4 997.6
12 12.07 СЗ 5 29 км 10/10 1500 м
[]
+6.8 +4.8 87 +3 +3 1008.5 997.7
14 12.07 СЗ 9 35 км 6/6 1500 м
[]
+8.9 +4.1 72 +4 +5 1008.4 997.7
13 12.07 СЗ 8 35 км 9/0
[]
+7.6 +4.7 82 +3 +4 1008.4 997.6
15 12.07 СЗ 8 35 км ясно +8.4 +3.6 72 +4 +5 1008.5 997.7
16 12.07 СЗ 8 27 км ясно +8.7 +3.7 71 +4 +6 1008.6 997.8
18 12.07 С 3 28 км ясно +6.6 +4.4 86 +3 +10 1009.3 998.5 +5.8 +9.8
19 12.07 С 2 35 км ясно +7.4 +4.5 82 +5 +12 1009.6 998.8
20 12.07 СЗ 5 30 км в посл. час туман {дымка} 8/8 60 м
[]
+6.6 +4.8 88 +3 +3 1010.2 999.3
21 12.07 С 3 27 км {туман, дымка} 1/0
[]
+6.7 +4.2 84 +4 +6 1010.4 999.6
22 12.07 В 2 17 км {туман, дымка} ясно +6.9 +4.2 83 +5 +7 1010.6 999.7
23 12.07 С 2 22 км {туман, дымка} 1/1 120 м
[]
+6.1 +4.1 87 +4 +5 1011.2 1000.4
00 13.07 СЗ 2 100 м туман {дымка} 10/10 60 м
[]
+4.4 +3.9 97 +1 +1 1011.6 1000.6
01 13.07 С 1 100 м туман 10/10 60 м
[]
+3.6 +3.6 100 +2 +2 1011.8 1000.8
02 13.07 С 1 100 м туман ?/? +3.3 +3.3 100 +1 +1 1012.0 1001.0
03 13.07 В 1 100 м туман 10/10 60 м
[]
+2.8 +2.8 100 +2 +2 1012.0 1001.0
04 13.07 З 2 35 км туман 4/4 90 м
[]
+3.2 +3.0 99 +1 +1 1011.8 1000.8
05 13.07 З 1 29 км {туман} ясно +3.6 +3.4 99 +2 +2 1012.1 1001.1
06 13.07 ЮВ 1 2300 м ясно +4.3 +3.9 97 +3 +3 1011.7 1000.8 +2.4 +8.0
07 13.07 СВ 2 35 км ясно +4.8 +4.1 95 +2 +3 1012.1 1001.2
08 13.07 ЮВ 2 35 км 10/0
[]
+4.6 +4.1 97 +2 +3 1011.8 1000.9
09 13.07 В 2 35 км 9/9 120 м
[]
+5.1 +4.4 95 +3 +3 1011.3 1000.4
11 13.07 В 5 35 км 9/0
[]
+6.5 +4.0 84 +2 +4 1010.2 999.4
12 13.07 В 9 35 км 8/0
[]
+8.6 +2.9 67 +4 +4 1009.1 998.3
13 13.07 В 9 35 км 9/0
[]
+10.0 +2.0 58 +6 +7 1008.6 997.9
14 13.07 В 9 35 км 10/0
[]
+10.1 +1.6 56 +6 +7 1007.7 997.0
15 13.07 В 11 35 км 10/0
[]
+11.5 +0.9 48 +8 +8 1006.9 996.2
17 13.07 СЗ 4 30 км слаб. ливневой дождь 9/9 800 м
[]
+6.6 +3.9 83 +3 +3 1007.9 997.1
16 13.07 В 7 35 км 10/0
[]
+11.3 +0.7 48 +8 +10 1007.7 997.0
18 13.07 З 2 29 км слаб. ливневой дождь 10/0 2000 м
[]
+7.2 +5.2 87 +5 +9 1007.5 996.7 +4.7 +11.8
19 13.07 СЗ 4 18 км слаб. ливневой дождь 10/10 1500 м
[]
+5.9 +5.2 95 +2 +2 1007.7 996.9
20 13.07 С 2 12 км слаб. дождь {ливн. осадки} 10/0 2000 м
[]
+5.4 +4.3 93 +3 +5 1007.2 996.4
21 13.07 С 2 30 км слаб. дождь {ливн. осадки} 10/10 1500 м
[]
+6.6 +4.4 86 +5 +5 1006.6 995.8
23 13.07 ЮВ 12 11 км слаб. дождь {ливн. осадки} 10/0 2000 м
[]
+8.7 +3.0 67 +4 +4 1005.2 994.5
22 13.07 В 10 23 км слаб. дождь {ливн. осадки} 10/0 2000 м
[]
+8.8 +3.1 67 +4 +4 1006.0 995.2
00 14.07 ЮВ 12 15 км слаб. дождь 10/0 2000 м
[]
+8.4 +2.5 66 +3 +3 1005.1 994.4
01 14.07 В 13 30 км слаб. дождь 10/10 1500 м
[]
+8.2 +2.3 66 +3 +3 1004.4 993.7
02 14.07 ЮВ 9 35 км {дождь} 10/10 1500 м
[]
+9.8 +1.3 55 +6 +6 1004.2 993.6
03 14.07 В 8 27 км слаб. ливневой дождь 10/10 1500 м
[]
+8.8 +1.4 60 +5 +5 1004.3 993.6
05 14.07 СЗ 3 15 км в посл. час дождь {ливн. осадки} 10/10 1260 м
[]
+7.0 +4.8 86 +4 +4 1006.1 995.3
04 14.07 В 6 17 км слаб. ливневой дождь 10/0
[]
+9.0 +2.1 62 +5 +5 1004.8 994.1
06 14.07 З 2 16 км слаб. дождь {ливн. осадки} 10/10 1350 м
[]
+6.6 +5.4 92 +4 +4 1006.8 996.0 +4.9 +9.9
07 14.07 СЗ 8 24 км в посл. час дождь {ливн. осадки} 10/10 1020 м
[]
+5.6 +4.9 95 -0 -0 1007.7 996.9
08 14.07 СЗ 6 100 м слаб. ливневой дождь 10/10 60 м
[]
+4.8 +4.6 99 -1 -1 1008.4 997.5
09 14.07 СЗ 9 8000 м в посл. час дождь {ливн. осадки} 10/10 60 м
[]
+3.6 +3.4 99 -3 -3 1009.1 998.1
11 14.07 СЗ 8 17 км {ливн. осадки, дождь} 10/10 210 м
[]
+3.4 +3.0 97 -3 -3 1010.1 999.1
10 14.07 СЗ 8 11 км {ливн. осадки, дождь} 10/10 60 м
[]
+3.7 +3.3 97 -3 -3 1009.7 998.8
12 14.07 СЗ 7 22 км 10/10 210 м
[]
+3.8 +3.3 97 -2 -2 1010.5 999.5
13 14.07 СЗ 5 21 км 10/10 150 м
[]
+3.6 +2.9 95 -2 -2 1011.0 1000.0
14 14.07 СЗ 6 7000 м 10/10 90 м
[]
+3.8 +3.3 97 -2 -2 1011.4 1000.4
15 14.07 СЗ 6 21 км 10/10 90 м
[]
+3.8 +3.1 95 -2 -2 1011.5 1000.5
17 14.07 СЗ 3 29 км 10/10 120 м
[]
+4.2 +2.8 91 0 0 1011.3 1000.3
16 14.07 СЗ 5 30 км 10/10 120 м
[]
+3.8 +2.8 93 -1 -1 1011.4 1000.5
18 14.07 С 2 35 км 10/10 330 м
[]
+4.5 +2.9 89 +2 +2 1011.1 1000.1 +3.2 +7.4
19 14.07 СВ 1 35 км 10/10 210 м
[]
+5.0 +3.1 88 +4 +4 1011.0 1000.1
20 14.07 С 2 35 км 10/10 270 м
[]
+6.1 +3.4 83 +4 +4 1011.0 1000.1
21 14.07 В 4 27 км ясно +5.4 +3.1 85 +2 +4 1010.7 999.8
23 14.07 ЮВ 3 35 км ясно +5.8 +4.0 88 +3 +4 1010.1 999.3
22 14.07 В 4 35 км 9/9 870 м
[]
+5.4 +3.5 88 +1 +1 1010.3 999.4
00 15.07 В 2 35 км 9/9 150 м
[]
+4.7 +3.5 92 +2 +3 1010.1 999.2
01 15.07 В 1 35 км 10/10 150 м
[]
+4.9 +3.7 92 +3 +3 1009.8 998.9
02 15.07 СЗ 2 3100 м 10/10 570 м
[]
+4.9 +3.7 92 +3 +3 1009.5 998.6
03 15.07 СЗ 2 35 км 10/10 120 м
[]
+4.7 +3.8 94 +2 +2 1009.2 998.3
05 15.07 штиль 0 9000 м 10/10 60 м
[]
+4.4 +3.4 93 +3 +3 1008.9 998.0
04 15.07 З 1 11 км 10/10 90 м
[]
+4.4 +3.7 95 +3 +3 1008.9 998.0
06 15.07 СЗ 2 35 км в посл. час туман {дымка} 10/10 60 м
[]
+4.5 +4.1 97 +2 +2 1008.7 997.7 +4.1 +6.8
07 15.07 С 1 35 км {туман} 10/10 150 м
[]
+4.8 +4.1 95 +3 +3 1008.3 997.4
08 15.07 СВ 1 1700 м в посл. час туман 10/10 60 м
[]
+4.8 +4.3 97 +4 +4 1008.0 997.1
09 15.07 С 1 35 км {туман} 9/9 120 м
[]
+5.1 +4.4 95 +4 +4 1007.7 996.8
11 15.07 С 2 600 м дымка {туман} 9/9 60 м
[]
+5.1 +4.2 94 +3 +3 1007.2 996.3
10 15.07 С 1 28 км {туман} 8/8 120 м
[]
+5.8 +4.7 93 +4 +5 1007.5 996.7
12 15.07 С 1 29 км 9/9 60 м
[]
+5.3 +4.3 93 +4 +5 1006.8 995.9
13 15.07 С 2 35 км 9/9 90 м
[]
+5.8 +4.4 91 +4 +5 1006.6 995.8
14 15.07 З 2 2000 м дымка 9/9 60 м
[]
+5.7 +4.8 94 +3 +4 1006.3 995.5
15 15.07 СЗ 3 600 м дымка 9/9 60 м
[]
+5.4 +4.7 95 +2 +3 1005.8 994.9
17 15.07 З 2 35 км в посл. час туман {дымка} 9/9 30 м
[]
+6.7 +5.1 90 +5 +6 1005.5 994.7
16 15.07 СЗ 2 400 м в посл. час туман {дымка} 9/9 30 м
[]
+5.7 +5.3 97 +3 +4 1005.7 994.9
18 15.07 СВ 1 35 км {туман} 10/10 60 м
[]
+5.9 +5.0 94 +6 +6 1005.1 994.2 +4.5 +7.0
19 15.07 СВ 2 28 км слаб. ливневой дождь 9/0 2000 м
[]
+6.8 +5.7 93 +5 +9 1004.6 993.8
20 15.07 С 2 16 км слаб. ливневой дождь 10/10 150 м
[]
+6.3 +5.2 93 +4 +4 1004.2 993.4
21 15.07 Ю 1 4400 м слаб. дождь {ливн. осадки} 10/10 60 м
[]
+5.7 +5.3 97 +5 +5 1003.5 992.7
23 15.07 СЗ 4 1700 м слаб. дождь {ливн. осадки} 10/0
[]
+5.4 +5.2 99 +1 +2 1003.0 992.2
22 15.07 СЗ 3 1200 м слаб. ливневой дождь 10/10 90 м
[]
+5.4 +5.0 97 +2 +2 1003.3 992.5
00 16.07 СЗ 4 30 км слаб. дождь 10/10 630 м
[]
+7.4 +6.1 91 +4 +4 1002.7 992.0
01 16.07 СЗ 5 30 км слаб. ливневой дождь 10/10 700 м
[]
+6.6 +5.7 94 +2 +2 1002.3 991.6

 

Местоположение метеостанции Qaarsut Mittarfia (Гренландия): широта 70.73 долгота -52.70 высота над уровнем моря 89 м.

В архиве по умолчанию представлена погода в Qaarsut Mittarfia за последнюю неделю. Архивные данные за месяц целиком и за предыдущие месяцы, начиная с января 2011 года, Вы можете получить, выбрав интересующий диапазон дат из раскрывающегося списка и нажав кнопку "Ввод!".


*Определитесь, кто Вы:
робот инопланетянин человек

Внимание! Время в таблицах - всемирное. Для получения местного времени необходимо прибавить поправку, которая в Qaarsut Mittarfia равна -3 ч.

Смотрите также архив погоды в соседних городах и на ближайших метеорологических станциях:

Погода в Nuussuaataa (Гренландия) (70 км)
Погода в Ilulissat (Гренландия) (178 км)
Погода в Aasiaat Mittarfia (Гренландия) (224 км)
Погода в Aasiaat (Гренландия) (226 км)
Погода в Mittarfik Upernavik (Гренландия) (257 км)
Погода в Kitsissut (Гренландия) (332 км)
Погода в Kitsissorsuit (Гренландия) (405 км)
Погода в Kangerlussuaq (Гренландия) (420 км)
Погода в Sisimiut Mittarfia (Гренландия) (422 км)
Погода в Summit (Гренландия) (538 км)

Пояснения к столбцам:

Ветер - указаны скорость ветра в м/с - средняя за 10 мин, порывы в срок и между сроками (в фигурных скобках) и направление, откуда дует ветер: С - северный, СВ - северо-восточный, В - восточный, ЮВ - юго-восточный, Ю - южный, ЮЗ - юго-западный, З - западный, СЗ - северо-западный.
Видимость - горизонтальная дальность видимости в метрах или километрах. При видимости от 1 до 10 км при отсутствии осадков обычно наблюдается дымка, при ухудшении видимости до 1 км и менее - туман. В сухую погоду видимость может ухудшаться дымом, пылью или мглою.
Явления - указаны атмосферные явления, наблюдавшиеся в срок или в последний час перед сроком; фигурными скобками обозначены явления, наблюдавшиеся между сроками (за 1-3 часа до срока); квадратными скобками обозначены град или гололедные отложения с указанием их диаметра в мм.
Облачность - указаны через наклонную черту общая и нижняя облачность в баллах и высота нижней границы облаков в метрах; квадратными скобками обозначены формы облаков: Ci - перистые, Cs - перисто-слоистые, Cc - перисто-кучевые, Ac - высококучевые, As - высокослоистые, Sc - слоисто-кучевые, Ns - слоисто-дождевые, Cu - кучевые, Cb - кучево-дождевые. Подробнее классификацию облаков см. в Атласе облаков (PDF).
T - Температура воздуха - температура, измеренная на высоте 2 м над землей.
Td - Температура точки росы - температура, при понижении до которой содержащийся в воздухе водяной пар достигнет насыщения.
f - Относительная влажность воздуха - влажноcть воздуха, измеренная на высоте 2 м над землей.
Te - Эффективная температура - температура, которую ощущает одетый по сезону человек в тени. Характеристика душности погоды. При расчете учитывается влияние влажности воздуха и скорости ветра на теплоощущения человека.
Tes - Эффективная температура на солнце - температура, которую ощущает человек, с поправкой на солнечный нагрев. Характеристика знойности погоды. Зависит от высоты солнца над горизонтом, облачности и скорости ветра. Ночью, в пасмурную погоду, а также при ветре 12 м/с и более поправка равна нулю.
P - Атмосферное давление - приведенное к уровню моря атмосферное давление.
Po - Атмосферное давление - измеренное на уровне метеостанции атмосферное давление.
Tmin - Минимальная температура - минимум температуры воздуха на высоте 2 м над землей.
Tmax - Максимальная температура - максимум температуры воздуха на высоте 2 м над землей.
R - Количество осадков - Количество выпавших осадков за период времени, мм. При наведении курсора мыши на число - период времени, за который выпало указанное количество осадков.
R24 - Количество осадков - Количество выпавших осадков за 24 часа, мм.
S - Снежный покров - Высота снежного покрова, см. При наведении курсора мыши на число - состояние снежного покрова и степень покрытия местности в баллах.